Weather History for Storm Lake, IA

Change the Weather History Date:

Saturday, June 15, 2013

  Actual Average Record
Temperature  
Mean Temperature 68 °F -  
Max Temperature 77 °F 78 °F 91 °F (2007)
Min Temperature 60 °F 58 °F 50 °F (1999)
Cooling Degree Days 4    
Growing Degree Days 18 (Base 50)    
Moisture  
Dew Point 65 °F    
Average Humidity 86    
Maximum Humidity 100    
Minimum Humidity 65    
Precipitation  
Precipitation 0.45 in - - ()
Sea Level Pressure  
Sea Level Pressure 29.90 in    
Wind  
Wind Speed 8 mph (South)    
Max Wind Speed 24 mph    
Max Gust Speed 33 mph    
Visibility 10 miles    
Events Rain    
Averages and records for this station are not official NWS values.
T = Trace of Precipitation, MM = Missing Value Source: NWS Daily Summary

Daily Weather History Graph

Daily Weather History Graph

Search for Another Location

Airport:

Trip Planner

Search our weather history database for the weather conditions in past years. The results will help you decide how hot, cold, wet, or windy it might be!

Date:

Astronomy

Jun. 15, 2013 Rise Set
Actual Time 5:42 AM CDT 9:00 PM CDT
Civil Twilight 5:07 AM CDT 9:35 PM CDT
Nautical Twilight 4:22 AM CDT 10:20 PM CDT
Astronomical Twilight 3:27 AM CDT 11:16 PM CDT
Moon 12:26 PM CDT (6/15) 12:29 AM CDT (6/15)
Length of Visible Light 16h 27m
Length of Day
15h 17m
Waxing Crescent, 40% of the Moon is Illuminated
Jun 15
Waxing Crescent
Jun 16
First Quarter
Jun 23
Full
Jun 29
Last Quarter
Jul 8
New

Hourly Weather History & Observations

Time (CDT) Temp. Dew Point Humidity Pressure Visibility Wind Dir Wind Speed Gust Speed Precip Events Conditions
12:15 AM 68.0 °F 66.2 °F 94% 29.89 in 10.0 mi East 8.1 mph - N/A   Mostly Cloudy
12:35 AM 68.0 °F 64.4 °F 88% 29.90 in 10.0 mi SE 6.9 mph 15.0 mph N/A   Mostly Cloudy
12:55 AM 66.2 °F 64.4 °F 94% 29.90 in 10.0 mi SE 11.5 mph - N/A   Light Drizzle
1:15 AM 66.2 °F 62.6 °F 88% 29.90 in 10.0 mi SE 10.4 mph - N/A   Clear
1:35 AM 66.2 °F 62.6 °F 88% 29.88 in 10.0 mi ESE 8.1 mph - N/A   Clear
1:55 AM 66.2 °F 62.6 °F 88% 29.90 in 10.0 mi SE 5.8 mph - N/A   Clear
2:15 AM 66.2 °F 62.6 °F 88% 29.91 in 10.0 mi South 8.1 mph - N/A   Clear
2:35 AM 64.4 °F 62.6 °F 94% 29.91 in 10.0 mi SSW 8.1 mph - N/A   Clear
2:55 AM 64.4 °F 62.6 °F 94% 29.90 in 10.0 mi South 8.1 mph - N/A   Clear
3:15 AM 64.4 °F 62.6 °F 94% 29.90 in 10.0 mi South 9.2 mph - N/A   Clear
3:35 AM 66.2 °F 60.8 °F 83% 29.89 in 10.0 mi South 8.1 mph - N/A   Clear
3:55 AM 64.4 °F 60.8 °F 88% 29.89 in 10.0 mi South 9.2 mph - N/A   Scattered Clouds
4:15 AM 64.4 °F 60.8 °F 88% 29.89 in 10.0 mi SSE 6.9 mph - N/A   Mostly Cloudy
4:35 AM 64.4 °F 60.8 °F 88% 29.88 in 10.0 mi SSE 6.9 mph - N/A   Partly Cloudy
4:55 AM 62.6 °F 60.8 °F 94% 29.88 in 10.0 mi SE 5.8 mph - N/A   Clear
5:15 AM 62.6 °F 60.8 °F 94% 29.88 in 10.0 mi SSE 6.9 mph - N/A   Clear
5:35 AM 64.4 °F 60.8 °F 88% 29.88 in 10.0 mi South 6.9 mph - N/A   Clear
5:55 AM 62.6 °F 60.8 °F 94% 29.87 in 10.0 mi SSE 5.8 mph - N/A   Light Drizzle
6:15 AM 62.6 °F 62.6 °F 100% 29.87 in 10.0 mi SE 4.6 mph - N/A   Clear
6:35 AM 64.4 °F 62.6 °F 94% 29.87 in 10.0 mi ESE 3.5 mph - N/A   Clear
6:55 AM 66.2 °F 62.6 °F 88% 29.89 in 10.0 mi Calm Calm - N/A   Clear
7:15 AM 68.0 °F 62.6 °F 83% 29.89 in 10.0 mi SE 4.6 mph - N/A   Scattered Clouds
7:35 AM 66.2 °F 64.4 °F 94% 29.88 in 10.0 mi ESE 5.8 mph - N/A   Partly Cloudy
7:55 AM 68.0 °F 64.4 °F 88% 29.89 in 10.0 mi ESE 5.8 mph - N/A   Clear
8:15 AM 68.0 °F 64.4 °F 88% 29.88 in 10.0 mi SE 5.8 mph - N/A   Clear
8:35 AM 68.0 °F 66.2 °F 94% 29.88 in 10.0 mi SE 8.1 mph - N/A   Clear
8:55 AM 69.8 °F 66.2 °F 88% 29.88 in 10.0 mi SE 5.8 mph - N/A   Clear
9:15 AM 69.8 °F 66.2 °F 88% 29.90 in 10.0 mi South 6.9 mph - N/A   Partly Cloudy
9:35 AM 69.8 °F 66.2 °F 88% 29.92 in 10.0 mi SSW 8.1 mph - N/A   Mostly Cloudy
9:55 AM 69.8 °F 68.0 °F 94% 29.92 in 10.0 mi SW 5.8 mph - N/A   Overcast
10:15 AM 69.8 °F 68.0 °F 94% 29.91 in 10.0 mi SW 9.2 mph - N/A   Overcast
10:35 AM 69.8 °F 68.0 °F 94% 29.96 in 5.0 mi WSW 16.1 mph - N/A   Light Drizzle
10:55 AM 62.6 °F 62.6 °F 100% 29.99 in 1.2 mi NW 24.2 mph 33.4 mph 0.43 in Rain Light Rain
11:15 AM 60.8 °F 60.8 °F 100% 29.94 in 10.0 mi NNE 15.0 mph - N/A   Mostly Cloudy
11:35 AM 62.6 °F 60.8 °F 94% 29.91 in 10.0 mi NE 11.5 mph 20.7 mph N/A   Light Drizzle
11:55 AM 64.4 °F 62.6 °F 94% 29.90 in 10.0 mi NE 12.7 mph - 0.01 in   Scattered Clouds
12:15 PM 66.2 °F 60.8 °F 83% 29.88 in 9.0 mi East 15.0 mph - N/A   Light Drizzle
12:35 PM 66.2 °F 62.6 °F 88% 29.87 in 10.0 mi SE 11.5 mph - N/A   Clear
12:55 PM 68.0 °F 64.4 °F 88% 29.88 in 10.0 mi ESE 12.7 mph - 0.01 in   Clear
1:15 PM 69.8 °F 64.4 °F 83% 29.88 in 10.0 mi East 11.5 mph - N/A   Clear
1:35 PM 73.4 °F 66.2 °F 78% 29.89 in 10.0 mi East 9.2 mph - N/A   Clear
1:55 PM 73.4 °F 66.2 °F 78% 29.90 in 10.0 mi North 10.4 mph - N/A   Clear
2:15 PM 73.4 °F 68.0 °F 83% 29.91 in 10.0 mi Calm Calm - N/A   Clear
2:35 PM 75.2 °F 66.2 °F 73% 29.92 in 10.0 mi Calm Calm - N/A   Scattered Clouds
2:55 PM 75.2 °F 68.0 °F 78% 29.94 in 10.0 mi SW 4.6 mph - N/A   Mostly Cloudy
3:15 PM 75.2 °F 68.0 °F 78% 29.93 in 10.0 mi SW 11.5 mph - N/A   Mostly Cloudy
3:35 PM 75.2 °F 68.0 °F 78% 29.93 in 10.0 mi WSW 11.5 mph - N/A   Scattered Clouds
3:55 PM 75.2 °F 68.0 °F 78% 29.92 in 10.0 mi WSW 16.1 mph 21.9 mph N/A   Mostly Cloudy
4:15 PM 73.4 °F 66.2 °F 78% 29.92 in 10.0 mi West 13.8 mph - N/A   Scattered Clouds
4:35 PM 75.2 °F 68.0 °F 78% 29.91 in 10.0 mi WSW 12.7 mph 18.4 mph N/A   Scattered Clouds
4:55 PM 73.4 °F 64.4 °F 73% 29.90 in 10.0 mi SW 10.4 mph - N/A   Mostly Cloudy
5:15 PM 75.2 °F 62.6 °F 65% 29.89 in 10.0 mi West 6.9 mph - N/A   Scattered Clouds
5:35 PM 75.2 °F 64.4 °F 69% 29.89 in 10.0 mi West 8.1 mph - N/A   Clear
5:55 PM 75.2 °F 66.2 °F 73% 29.89 in 10.0 mi NW 6.9 mph - N/A   Clear
6:15 PM 77.0 °F 68.0 °F 74% 29.89 in 10.0 mi WNW 8.1 mph - N/A   Clear
6:35 PM 77.0 °F 68.0 °F 74% 29.88 in 10.0 mi NW 8.1 mph - N/A   Clear
6:55 PM 77.0 °F 68.0 °F 74% 29.88 in 10.0 mi NW 6.9 mph - N/A   Clear
7:15 PM 77.0 °F 68.0 °F 74% 29.88 in 10.0 mi NW 6.9 mph - N/A   Clear
7:35 PM 77.0 °F 68.0 °F 74% 29.88 in 10.0 mi NW 6.9 mph - N/A   Clear
7:55 PM 77.0 °F 69.8 °F 78% 29.89 in 10.0 mi NW 6.9 mph - N/A   Clear
8:15 PM 75.2 °F 69.8 °F 83% 29.90 in 10.0 mi NW 4.6 mph - N/A   Clear
8:35 PM 75.2 °F 68.0 °F 78% 29.91 in - Calm Calm - N/A   Clear
8:55 PM 75.2 °F 68.0 °F 78% 29.91 in 10.0 mi Calm Calm - N/A   Clear
9:15 PM 73.4 °F 68.0 °F 83% 29.91 in 10.0 mi Calm Calm - N/A   Clear
9:35 PM 73.4 °F 68.0 °F 83% 29.92 in 10.0 mi Calm Calm - N/A   Clear
9:55 PM 73.4 °F 69.8 °F 88% 29.93 in 10.0 mi Calm Calm - N/A   Clear
10:15 PM 69.8 °F 69.8 °F 100% 29.93 in 10.0 mi Calm Calm - N/A   Clear
10:35 PM 71.6 °F 69.8 °F 94% 29.94 in 10.0 mi SSW 3.5 mph - N/A   Clear
10:55 PM 71.6 °F 69.8 °F 94% 29.94 in 10.0 mi SW 4.6 mph - N/A   Partly Cloudy
11:15 PM 71.6 °F 69.8 °F 94% 29.95 in 10.0 mi SW 5.8 mph - N/A   Mostly Cloudy
11:35 PM 69.8 °F 69.8 °F 100% 29.95 in 9.0 mi SW 3.5 mph - N/A   Overcast
11:55 PM 69.8 °F 69.8 °F 100% 29.95 in 10.0 mi North 6.9 mph - N/A   Overcast